Flag for France Weather past 2 weeks in Le Havre, France

Now
70 °F

Sunny.


Feels Like: 70 °F
Forecast: 58 / 65 °F
Wind: 12 mph from North

Location: La Heve

Current Time: Jul 4, 2015 at 6:08:42 PM

Latest Report: Jul 4, 2015 at 5:30 PM


Visibility: 10 mi

Pressure: 30.18 "Hg

Humidity: 64%

Dew point: 57 °F

Location of Le HavreLocation

Historic Weather in Le Havre — Graph

°F

Le Havre temperature yesterday

Maximum temperature yesterday: 84 °F (at 3:30 PM)
Minimum temperature yesterday: 55 °F (at 5:30 AM)
Average temperature yesterday: 71 °F

Past Weeks' High & Low Weather Summary

 TemperatureHumidityPressure
High95 °F (Jul 1, 5:30 PM)100% (Jun 21, 5:30 AM)30.27 "Hg (Jun 21, 5:30 AM)
Low48 °F (Jun 24, 4:00 AM)24% (Jun 30, 6:00 PM)29.83 "Hg (Jun 22, 3:30 PM)
Average65 °F72%30.10 "Hg
* Reported Jun 19 5:00 PM — Jul 4 5:00 PM, Le Havre, Weather by CustomWeather, © 2015

Note: Actual official high and low records may vary slightly from our data, if they occured in-between our weather recording intervals... More about our weather records

Advertising

Le Havre weather history for previous 24 hours

 ConditionsComfort  
Time TempWeatherWind HumidityBarometerVisibility
5:00 PM
Sat, Jul 4
70 °FSunny.10 mph64%30.18 "Hg10 mi
4:30 PM72 °FPassing clouds.12 mph61%30.18 "HgN/A
4:00 PM72 °FSunny.10 mph61%30.18 "Hg10 mi
3:30 PM72 °FSunny.9 mph61%30.18 "Hg10 mi
3:00 PM70 °FPassing clouds.8 mph64%30.18 "HgN/A
2:30 PM72 °FBroken clouds.8 mph61%30.18 "HgN/A
2:00 PM72 °FPartly sunny.8 mph65%30.18 "HgN/A
1:30 PM70 °FPartly sunny.7 mph69%30.18 "HgN/A
1:00 PM70 °FScattered clouds.8 mph69%30.18 "HgN/A
12:30 PM70 °FSunny.8 mph69%30.15 "Hg10 mi
12:00 PM70 °FSunny.9 mph73%30.15 "Hg10 mi
11:30 AM68 °FSunny.9 mph78%30.15 "Hg10 mi
11:00 AM68 °FSunny.10 mph83%30.15 "Hg10 mi
10:30 AM66 °FClear.8 mph88%30.15 "Hg6 mi
10:00 AM66 °FBroken clouds.10 mph94%30.12 "Hg4 mi
9:30 AM66 °FCloudy.9 mph94%30.12 "Hg4 mi
9:00 AM66 °FThunderstorms. Fog.8 mph94%30.09 "Hg3 mi
8:30 AM66 °FThunderstorms. Mostly cloudy.8 mph88%30.09 "Hg4 mi
8:00 AM66 °FBroken clouds.7 mph94%30.07 "Hg4 mi
7:30 AM66 °FThunderstorms. Low clouds.12 mph88%30.09 "HgN/A
7:00 AM68 °FBroken clouds.14 mph88%30.09 "HgN/A
6:30 AM70 °FClear.13 mph83%30.04 "Hg10 mi
6:00 AM72 °FClear.13 mph73%30.04 "Hg10 mi
5:30 AM73 °FClear.10 mph69%30.01 "Hg10 mi
5:00 AM73 °FClear.8 mph69%30.01 "Hg10 mi
4:30 AM75 °FClear.12 mph65%30.01 "Hg10 mi
4:00 AM75 °FClear.7 mph69%29.98 "Hg10 mi
3:30 AM75 °FClear.8 mph69%29.98 "Hg10 mi
3:00 AM75 °FClear.9 mph74%29.98 "Hg10 mi
2:30 AM75 °FClear.9 mph74%29.98 "Hg10 mi
2:00 AM79 °FClear.9 mph65%29.98 "Hg10 mi
1:30 AM79 °FClear.5 mph70%29.98 "Hg10 mi
1:00 AM81 °FClear.5 mph66%29.98 "Hg10 mi
12:30 AM81 °FClear.5 mph66%29.98 "Hg10 mi
12:00 AM79 °FClear.6 mph70%29.98 "Hg10 mi
11:30 PM
Fri, Jul 3
79 °FClear.3 mph70%30.01 "Hg10 mi
11:00 PM77 °FSunny.5 mph74%29.98 "Hg10 mi
10:30 PM77 °FSunny.6 mph74%29.98 "Hg10 mi
10:00 PM77 °FSunny.8 mph74%29.98 "Hg10 mi
9:30 PM77 °FSunny.10 mph74%29.98 "Hg10 mi
9:00 PM79 °FSunny.10 mph70%29.98 "Hg10 mi
8:30 PM79 °FSunny.9 mph70%30.01 "Hg10 mi
8:00 PM79 °FSunny.12 mph70%30.01 "Hg10 mi
7:30 PM79 °FSunny.12 mph70%30.01 "Hg10 mi
7:00 PM79 °FSunny.12 mph65%30.04 "Hg10 mi
6:30 PM81 °FSunny.12 mph62%30.04 "Hg10 mi
6:00 PM81 °FSunny.12 mph62%30.07 "Hg10 mi
Weather by CustomWeather, © 2015

See weather overviewHow to use our weather pages